SCP
0 0 0 0 0 0 0 0 0 0 0 0 0 0 0 0 0 0 0 0 0 0 0 0 0 0 0 0 0 0 1 1 1 1 1 1 1 1
0 0 0 0 0 0 0 0 0 0 0 0 0 0 0 0 0 0 0 0 0 0 0 0 0 0 0 0 0 0 0 0 1 1 1 1 1 1
0 0 0 0 0 0 0 0 0 0 0 0 0 0 0 0 0 0 0 0 0 0 0 0 0 0 0 0 0 0 0 0 0 0 1 1 1 1
0 0 0 0 0 0 0 0 0 0 0 0 0 0 0 0 0 0 0 0 0 0 0 0 0 0 0 0 0 0 0 0 0 0 0 0 0 0
0 0 0 0 0 0 0 0 0 0 0 0 0 0 0 0 0 0 0 0 0 0 0 0 0 0 0 0 0 0 0 0 0 0 0 0 0 0
0 0 0 0 0 0 0 0 0 0 0 0 0 0 0 0 0 0 0 0 0 0 0 0 0 0 0 0 0 0 0 0 0 0 0 0 0 0
0 0 0 0 0 0 0 0 0 0 0 0 0 0 0 0 0 0 0 0 0 0 0 0 0 0 0 0 0 0 0 0 0 0 0 0 0 0
0 0 0 0 0 0 0 0 0 0 0 0 0 0 0 0 0 0 0 0 0 0 0 0 0 0 0 0 0 0 0 0 0 0 0 0 0 0
0 0 0 0 0 0 0 0 0 0 0 0 0 0 0 0 0 0 0 0 0 0 0 0 0 0 0 0 0 0 0 0 0 0 0 0 0 0
0 0 0 0 0 0 0 0 0 0 0 0 0 0 0 0 0 0 0 0 0 0 0 0 0 0 0 0 0 0 0 0 0 0 0 0 0 0
0 0 0 0 0 0 0 0 0 0 0 0 0 0 0 0 0 0 0 0 0 0 0 0 0 0 0 0 0 0 0 0 0 0 0 0 0 0
0 0 0 0 0 0 0 0 0 0 0 0 0 0 0 0 0 0 0 0 0 0 0 0 0 0 0 0 0 0 0 0 0 0 0 0 0 0
0 0 0 0 0 0 0 0 0 0 0 0 0 0 0 0 0 0 0 0 0 0 0 0 0 0 0 0 0 0 0 0 0 0 0 0 0 0
0 0 0 0 0 0 0 0 0 0 0 0 0 0 0 0 0 0 0 0 0 0 0 0 0 0 0 0 0 0 0 0 0 0 0 0 0 0
0 0 0 0 0 0 0 0 0 0 0 0 0 0 0 0 0 0 0 0 0 0 0 0 0 0 0 0 0 0 0 0 0 0 0 0 0 0
0 0 0 0 0 0 0 0 0 0 0 0 0 0 0 0 0 0 0 0 0 0 0 0 0 0 0 0 0 0 0 0 0 0 0 0 0 0
0 0 0 0 0 0 0 0 0 0 0 0 0 0 0 0 0 0 0 0 0 0 0 0 0 0 0 0 0 0 0 0 0 0 0 0 0 0
0 0 0 0 0 0 0 0 0 0 0 0 0 0 0 0 0 0 0 0 0 0 0 0 0 0 0 0 0 0 0 0 0 0 0 0 0 0
0 0 0 0 0 0 0 0 0 0 0 0 0 0 0 0 0 0 0 0 0 0 0 0 0 0 0 0 0 0 0 0 0 0 0 0 0 0
0 0 0 0 0 0 0 0 0 0 0 0 0 0 0 0 0 0 0 0 0 0 0 0 0 0 0 0 0 0 0 0 0 0 0 0 0 0
0 0 0 0 0 0 0 0 0 0 0 0 0 0 0 0 0 0 0 0 0 0 0 0 0 0 0 0 0 0 0 0 0 0 0 0 0 0
0 0 0 0 0 0 0 0 0 0 0 0 0 0 0 0 0 0 0 0 0 0 0 0 0 0 0 0 0 0 0 0 0 0 0 0 0 0
0 0 0 0 0 0 0 0 0 0 0 0 0 0 0 0 0 0 0 0 0 0 0 0 0 0 0 0 0 0 0 0 0 0 0 0 0 0
Wind_Speed
4 4 4 4 4 4 4 5 7 14 15 5 3 3 5 7 15 11 10 23 31 33 33 34 33 33 34 35 35 35 35 35 35 35 34 34 34 34
3 4 5 4 4 4 5 5 7 11 16 8 9 9 9 11 18 14 12 29 30 31 32 33 33 35 36 36 36 36 36 35 35 35 35 34 34 34
5 5 6 6 5 5 5 6 7 9 16 16 12 10 10 11 12 10 11 12 13 28 31 33 35 36 36 36 36 35 35 34 34 34 34 34 34 34
6 6 7 6 6 6 6 8 8 9 13 19 16 13 13 12 12 11 12 13 10 23 31 33 34 34 34 35 35 34 34 34 34 34 34 34 34 34
6 6 7 7 8 7 8 9 9 10 9 14 17 14 13 11 12 12 12 10 13 18 25 28 30 33 34 34 35 35 35 34 34 34 34 34 34 34
5 6 7 8 9 10 9 9 9 10 10 12 14 13 13 11 10 12 14 9 11 13 19 22 26 31 32 34 34 34 34 34 34 34 34 34 34 34
6 7 8 13 16 14 12 10 10 11 12 12 13 14 13 13 13 13 16 15 12 10 12 12 12 12 15 23 29 31 33 33 34 34 34 34 34 34
7 7 9 11 15 21 25 24 22 17 15 13 13 14 16 15 14 15 16 17 16 7 9 14 12 14 13 11 24 32 33 34 34 34 34 34 34 34
8 8 9 11 17 11 18 23 19 22 23 16 15 15 17 16 17 18 16 17 17 14 14 17 12 14 13 16 30 33 34 35 35 35 35 35 35 35
8 9 10 10 12 17 15 13 10 11 16 13 11 14 15 14 14 16 17 17 16 12 11 16 15 15 15 14 26 33 34 34 34 34 34 35 35 35
8 8 11 10 20 26 16 13 13 12 17 22 23 23 27 27 21 13 12 13 16 14 9 10 12 15 16 15 17 26 28 30 32 33 34 34 33 33
6 7 14 19 24 26 14 10 13 14 14 13 15 18 15 16 21 12 11 12 14 12 5 6 10 12 13 8 7 11 16 24 30 31 32 32 32 21
7 6 8 23 26 26 21 10 17 19 11 12 12 12 11 9 10 10 10 11 13 13 11 10 11 10 10 14 14 13 12 12 14 18 23 28 29 24
9 7 10 24 25 24 17 19 24 19 9 10 11 11 11 11 11 12 13 13 13 16 17 15 12 13 14 16 15 12 11 12 12 13 12 17 20 23
9 19 23 24 21 14 18 22 17 9 10 10 11 11 10 10 12 11 12 12 14 13 13 14 14 13 13 13 12 13 15 13 10 11 10 8 6 6
10 13 19 19 16 16 15 12 9 9 11 10 11 11 10 10 10 9 11 12 12 12 9 10 11 13 13 14 12 14 14 11 11 12 10 6 4 4
12 6 6 8 9 9 9 9 8 9 10 10 10 11 11 11 11 9 9 10 10 12 14 11 9 10 12 12 10 11 12 12 11 11 9 6 3 2
13 7 8 9 9 10 11 11 10 10 10 10 10 10 11 11 12 10 9 10 11 11 12 12 13 11 8 6 7 10 11 11 11 11 10 7 6 3
7 7 8 9 9 10 10 10 11 11 10 10 10 10 10 10 10 11 10 10 10 11 10 10 9 8 10 10 10 10 12 12 12 11 10 8 8 6
6 7 8 9 9 10 10 10 11 11 10 10 10 10 9 10 10 10 10 11 11 11 10 9 8 8 8 8 8 9 16 15 12 13 12 8 9 10
8 8 9 9 9 10 10 10 11 11 11 11 10 10 9 10 10 10 10 15 12 9 10 10 10 15 8 6 6 8 10 17 18 14 14 11 10 11
9 9 10 9 10 10 10 10 10 11 11 10 10 10 9 9 10 11 10 10 9 8 8 8 9 8 5 6 6 8 10 12 14 20 24 23 13 11
9 10 10 10 10 9 9 10 12 11 11 10 10 10 10 10 10 9 9 9 8 7 7 7 7 5 5 4 6 7 11 12 10 11 12 23 25 25
Wind_Direction
269 266 255 253 250 253 258 268 291 304 308 280 261 259 271 278 285 288 281 291 296 295 295 295 294 293 292 291 289 287 285 283 280 276 273 270 266 264
274 270 266 258 256 254 254 257 258 279 293 292 295 291 282 290 295 292 284 292 295 294 293 292 292 292 291 289 288 286 284 281 279 277 274 271 269 266
295 284 275 271 266 262 258 259 262 267 285 296 295 295 288 285 289 278 278 275 279 288 291 291 290 290 289 289 288 287 284 282 280 278 276 273 271 269
295 293 287 289 277 271 267 266 269 266 278 293 301 302 297 292 289 285 292 290 282 287 290 291 291 291 290 289 288 286 284 283 281 279 276 274 271 269
294 294 289 287 283 278 275 275 274 279 278 288 295 297 296 296 297 295 290 284 285 289 292 291 291 290 289 288 288 287 286 284 281 279 276 274 271 268
294 288 284 282 280 281 283 277 285 290 288 287 291 296 298 299 300 304 302 290 288 291 289 288 288 290 289 289 288 286 285 282 280 277 274 271 268 265
290 284 284 297 301 302 304 304 300 295 295 296 299 303 305 309 307 305 302 301 291 282 285 286 285 281 281 282 283 281 280 278 276 273 270 267 264 261
294 291 289 295 299 310 311 307 303 302 304 303 304 303 303 303 303 302 303 303 301 294 288 293 287 284 281 275 278 280 279 278 276 273 270 267 264 260
289 292 300 302 310 296 296 300 303 304 305 302 298 297 298 301 302 303 301 300 298 302 301 294 292 287 284 281 285 283 282 281 278 275 271 267 263 260
280 283 288 291 295 303 302 306 299 297 298 297 287 289 294 297 298 300 300 299 295 291 290 291 295 291 290 285 284 282 281 280 278 275 272 267 263 258
284 287 299 297 303 312 315 308 305 303 307 305 304 305 306 308 307 306 305 304 302 301 293 282 290 298 291 282 279 282 283 284 282 279 275 270 265 259
288 284 304 311 312 318 318 312 312 309 310 313 311 307 302 299 305 304 301 299 301 301 285 283 296 311 304 279 271 284 286 285 284 281 276 271 265 257
310 304 299 314 318 322 324 316 307 314 321 316 308 304 303 302 304 302 297 292 293 288 292 300 295 294 282 295 301 294 286 286 288 283 279 273 265 254
311 306 307 318 324 325 324 315 319 327 320 309 307 308 309 308 306 303 297 289 280 281 286 288 285 289 291 292 295 296 299 294 289 286 280 275 268 253
308 314 320 324 328 325 317 321 328 322 310 309 309 307 302 297 301 302 301 296 289 280 276 276 279 285 285 286 287 292 304 304 297 298 296 284 262 238
311 314 324 325 323 318 319 320 316 309 312 309 306 303 303 303 305 307 310 314 311 307 292 278 280 290 293 288 286 292 302 303 310 316 313 301 270 219
325 325 322 321 321 319 316 315 314 315 314 309 306 307 308 309 309 310 307 311 309 311 318 320 312 299 285 280 289 301 312 319 324 328 326 324 307 238
335 326 320 318 317 317 317 316 315 313 312 309 306 304 306 308 309 310 309 310 311 312 314 318 326 328 325 297 266 307 327 331 334 336 339 339 346 343
331 316 313 313 312 310 309 308 308 308 307 304 303 303 304 304 306 308 311 312 311 311 313 317 323 328 330 326 315 324 338 341 345 350 352 352 354 357
317 313 311 309 308 307 306 306 306 307 306 305 303 302 302 303 304 305 307 310 312 315 318 320 324 327 321 309 307 315 338 352 355 359 357 357 8 14
317 312 308 305 304 304 303 302 302 302 302 302 301 300 301 302 301 302 304 309 314 315 320 320 315 321 312 314 321 334 341 352 4 13 7 6 12 21
314 310 306 302 302 301 301 301 301 300 301 299 299 299 299 298 299 301 303 307 309 311 310 307 314 324 338 348 344 339 345 350 358 14 28 33 30 24
310 307 303 301 299 299 299 298 298 297 297 297 297 297 299 299 297 296 299 302 306 312 317 318 328 335 336 339 346 348 353 357 359 9 20 23 34 40